Location: Newark
(45.5000°N, 11.4167°E)
Time: 08:25:14
(UTC+00:00)

Vanguard 3 - Pass Details

Date: 26 August 2019
Orbit: 508 x 3263 km, 33.4° (Epoch: 14 September)

Event Time Altitude Azimuth Distance (km) Brightness Sun altitude
Rises 15:56:18 0° 242° (WSW) 5,266 12.5 21.3°
Reaches altitude 10° 16:00:58 10° 232° (SW) 3,752 11.7 20.5°
Maximum altitude 16:08:10 27° 180° (S) 1,922 9.3 19.3°
Drops below altitude 10° 16:12:54 10° 122° (ESE) 2,390 9.2 18.4°
Sets 16:15:12 0° 109° (ESE) 3,086 9.6 18.0°
